Location: Courcelles
(49.2596°N, 1.7419°E)
Time: 00:18:34
(UTC+00:00)

Cosmos 1782 Rocket - Pass Details

Date: 17 November 2025
Orbit: 600 x 626 km, 82.5° (Epoch: 05 December)

Event Time Altitude Azimuth Distance (km) Brightness Sun altitude
Rises 17:08:37 0° 190° (S) 2,898 7.4 -9.8°
Reaches altitude 10° 17:10:50 10° 192° (SSW) 1,995 6.6 -10.1°
Maximum altitude 17:15:17 82° 280° (W) 638 3.7 -10.8°
Drops below altitude 10° 17:19:44 10° 8° (N) 2,003 5.9 -11.5°
Sets 17:21:58 0° 10° (N) 2,910 6.8 -11.9°
